Nanchang hangkong 1

operational
NORAD ID: 64050 Int'l Des: 2025-103 Owner: NCHU/CTYK Country: CN
LEOCIRCULARRETROGRADESSO

Nanchang hangkong 1について

説明を読み込み中...

リアルタイム位置

3D地球を読み込み中...

次回通過

高度履歴

Altitude vs Time

uPlot chart will show altitude changes over time

軌道要素

1 64050U 25103C 26061.17099442 .00004562 00000-0 21942-3 0 9995
2 64050 97.3850 135.2111 0003769 155.0710 205.0707 15.19279076 43811
Epoch: Mar 2, 2026 • Age: 28 hours

現在のステータス

高度 512.2 km
速度 7.61 km/s
衛星直下点 14.60°N, 84.87°W
打ち上げ日 May 17, 2025
運用期間 0.7 years
タイプ other

技術仕様

分類 Payload
質量 50.00 kg
乾燥質量 50.00 kg
総質量 50.00 kg
長さ 0.50 m
直径 0.30 m
スパン 1.00 m
形状 Box + 2 pan
製造者 CTYK
バスタイプ TY
フェーズステータス In Orbit
所有者/国 NCHU/CTYK/CN

大規模コンステレーション

Loading constellations...